Regional Weather Roundup
Issued by NWS

Home | Current Version | Previous Version | Text Only | Print | Product List | Glossary On
Versions: 1 2 3 4 5 6 7 8 9 10 11 12 13 14 15 16 17 18 19 20 21 22 23 24 25 26 27 28 29 30 31 32 33 34 35 36 37 38 39 40 41 42 43 44 45 46 47 48 49 50
000
ASUS43 KIND 071809
RWRIN

WEATHER ROUNDUP FOR INDIANA
NATIONAL WEATHER SERVICE INDIANAPOLIS IN
100 PM EST WED DEC 07 2016

NOTE: "FAIR" INDICATES FEW OR NO CLOUDS BELOW 12,000 FEET WITH NO
SIGNIFICANT WEATHER AND/OR OBSTRUCTIONS TO VISIBILITY.

* - STATION DOES NOT REPORT WEATHER SUCH AS PRECIPITATION OR FOG.

+ - STATION NOT QUALITY CONTROLLED BY THE NATIONAL WEATHER SERVICE.
    USE DATA WITH CAUTION...ESPECIALLY DEWPOINT AND RELATIVE
    HUMIDITY OBSERVATIONS.

INZ001>003-010>013-019-020-071900-
NORTHWEST INDIANA

CITY           SKY/WX    TMP DP  RH WIND       PRES   REMARKS
GARY /AIRPORT/ PTSUNNY   30  19  64 W9        30.10F WCI  22
KNOX *+        PTSUNNY   32   5  32 W12       30.09F WCI  23
LA PORTE +       N/A    N/A N/A N/A MISG        N/A
MICHIGAN CITY+ CLOUDY    32  21  64 SW10      30.08F WCI  24
MONTICELLO +   CLOUDY    32  19  59 W10       30.12F WCI  23
6HR MIN TEMP:  28; 6HR MAX TEMP:  32;

RENSSELAER +     N/A     32  27  80 W13       30.12F WCI  22
VALPARAISO     PTSUNNY   30  20  66 SW15      30.09F WCI  19
6HR MIN TEMP:  27; 6HR MAX TEMP:  30;


$$

LMZ046-743>745-071900-
SOUTHERN LAKE MICHIGAN

STATION/POSITION TIME  TEMP    WIND        PRES    WAVE
                       AIR SEA DIR/SP/G            HT
                 (UTC) (F)     (DEG/KT/KT) (MB)    (FT)
BURNS HARBOR     1740   30     240/ 13/ 16 1019.3F
MICHIGAN CITY    1740   30     190/ 11/ 13   N/A

$$

INZ004-005-014>016-021>024-071900-
NORTH CENTRAL INDIANA

CITY           SKY/WX    TMP DP  RH WIND       PRES   REMARKS
ELKHART        SUNNY     32  21  64 SW9       30.07S WCI  24
GOSHEN         MOSUNNY   33  21  61 SW16      30.07F WCI  23
6HR MIN TEMP:  27; 6HR MAX TEMP:  34;

LOGANSPORT +   CLOUDY    32  23  69 W15       30.12F WCI  22
PERU/GRISSOM   PTSUNNY   34  23  63 W15       30.10F WCI  24
6HR MIN TEMP:  26; 6HR MAX TEMP:  34;

ROCHESTER +    MOSUNNY   34  27  75 W12G18    30.10F WCI  25
SOUTH BEND     MOSUNNY   30  21  69 SW14      30.08F WCI  19
6HR MIN TEMP:  26; 6HR MAX TEMP:  31;

WARSAW +       CLOUDY    32  21  64 W14G20    30.08F WCI  22

$$

INZ006>009-017-018-025>027-071900-
NORTHEAST INDIANA

CITY           SKY/WX    TMP DP  RH WIND       PRES   REMARKS
ANGOLA *+      PTSUNNY   34  23  64 SW16      30.05S WCI  23
AUBURN +       SUNNY     32  23  69 SW10G16   30.08F WCI  24
FORT WAYNE     PTSUNNY   33  23  66 W15       30.09F WCI  23
6HR MIN TEMP:  26; 6HR MAX TEMP:  33;

HUNTINGTON +   MOSUNNY   34  22  61 W12G20    30.10F WCI  26
6HR MIN TEMP:  25; 6HR MAX TEMP:  34;

KENDALLVILLE + PTSUNNY   32  22  67 SW16      30.07S WCI  21

$$

INZ028-029-035-036-043>045-051>053-071900-
WEST CENTRAL INDIANA

CITY           SKY/WX    TMP DP  RH WIND       PRES   REMARKS
CRAWFORDSVL +  SUNNY     35  24  64 SW7       30.13F WCI  29
6HR MIN TEMP:  25; 6HR MAX TEMP:  35;

GREENCASTLE +  CLOUDY    34  25  69 W5        30.15F WCI  30
LAFAYETTE      MOSUNNY   33  22  63 W10       30.13F WCI  25
6HR MIN TEMP:  27; 6HR MAX TEMP:  33;

TERRE HAUTE    MOSUNNY   36  20  52 SW7       30.17F
6HR MIN TEMP:  25; 6HR MAX TEMP:  37;


$$

INZ030>032-037>040-046>048-054>057-064-065-071900-
CENTRAL INDIANA

CITY           SKY/WX    TMP DP  RH WIND       PRES   REMARKS
CP ATTERBURY + CLOUDY    36  25  64 SW5       30.16F
COLUMBUS       CLOUDY    36  27  69 SW7       30.17F
FISHERS *+     CLOUDY    34  25  69 W9        30.14F WCI  26
FRANKFORT +    SUNNY     37  26  65 W9        30.14F
6HR MIN TEMP:  29; 6HR MAX TEMP:  37;

GREENWOOD *+   CLOUDY    35  25  66 W8        30.16S WCI  28
6HR MIN TEMP:  28; 6HR MAX TEMP:  35;

INDIANAPOLIS   PTSUNNY   36  22  56 W9        30.14F
6HR MIN TEMP:  24; 6HR MAX TEMP:  37;

-EAGLE CREEK   CLOUDY    35  21  56 W7        30.13F WCI  29
6HR MIN TEMP:  26; 6HR MAX TEMP:  35;

KOKOMO +       PTSUNNY   35  23  61 W14       30.12F WCI  26
6HR MIN TEMP:  27; 6HR MAX TEMP:  35;

MARION +       SUNNY     34  24  68 W13G18    30.12F WCI  25
MT COMFORT *+  CLOUDY    36  23  60 W8        30.14S
SHELBYVILLE    CLOUDY    35  22  58 W9        30.14F WCI  28
6HR MIN TEMP:  25; 6HR MAX TEMP:  35;

ZIONSVILLE +   SUNNY     33  22  65 W8        30.14F WCI  25
6HR MIN TEMP:  27; 6HR MAX TEMP:  33;


$$

INZ033-034-041-042-049-050-058-059-071900-
EAST CENTRAL INDIANA

CITY           SKY/WX    TMP DP  RH WIND       PRES   REMARKS
MUNCIE         MOSUNNY   34  21  59 W9G18     30.12F WCI  27
6HR MIN TEMP:  26; 6HR MAX TEMP:  36;


$$

INZ060-061-067>069-081>083-085>088-071900-
SOUTHWEST INDIANA

CITY           SKY/WX    TMP DP  RH WIND       PRES   REMARKS
EVANSVILLE     CLOUDY    41  21  44 E3        30.20F
6HR MIN TEMP:  30; 6HR MAX TEMP:  42;

HUNTINGBURG *+ CLOUDY    38  22  52 S3        30.19F
6HR MIN TEMP:  27; 6HR MAX TEMP:  39;

WASHINGTON +   CLOUDY    36  24  61 CALM      30.18F
6HR MIN TEMP:  30; 6HR MAX TEMP:  36;


$$

INZ062-063-066-070>080-084-089>092-071900-
SOUTH CENTRAL AND SOUTHEAST INDIANA

CITY           SKY/WX    TMP DP  RH WIND       PRES   REMARKS
BLOOMINGTON    CLOUDY    35  21  56 W6        30.15F WCI  30
6HR MIN TEMP:  25; 6HR MAX TEMP:  35;

MADISON *+     CLOUDY    37  25  60 S5        30.16F
NORTH VERNON + CLOUDY    37  28  70 SW5       30.16F
SEYMOUR +      CLOUDY    39  25  56 SW5       30.17

$$




USA.gov is the U.S. government's official web portal to all federal, state and local government web resources and services.